星链-3335 (STARLINK-3335 )

导读

STARLINK-3335是美国SpaceX星链星座中的卫星,于2022年1月6日发射,属于星链项目低轨卫星互联网组网批次。它运行在近地轨道,承担全球宽带互联网接入服务任务,为偏远地区、海洋飞机等提供互联网信号,如今该卫星已在轨运行超过4年,是星链全球网络中重要的空间节点之一。

基本信息
目录编号:
50806
目录名称:
STARLINK-3335
国际标识:
2022-001D
轨道中心:
EARTH
卫星名称:
星链-3335
卫星全名:
星链-3335 (STARLINK-3335 )
卫星状态:
在轨 (已飞行1623 天)
发射日期:
2022-01-06 UTC
国别 :
美国 (US)
星等 :
--
轨道信息
数据来源 国际轨道数据 AOE轨道数据
星历时间 2026-06-17T09:00:01+0800
18小时前
查看轨道信息
2026-06-15T07:00:00+0800
2天前
查看轨道信息
半长轴 6917.912km 6917.904km
偏心率 0.0001348 0.0001549
轨道倾角 53.161° 53.160°
近地点辐角 87.590° 100.896°
升交点赤经 73.018° 82.386°
平近点角 272.524° 96.735°
近地点 538.842km 538.695km
远地点 540.708km 540.839km
周期 95.438分钟 95.438分钟
每日圈数 15.088299 15.088323
详细信息
固有亮度:
5
最大亮度:
2.5
卫星平台:
Starlink v1.5
覆盖范围:
全球
运营商:
太空探索技术公司
运营商所在国:
美国
制造商(研发单位):
太空探索技术公司
制造商所在国:
美国
使用方式:
暂无
卫星简介
星链(Starlink)计划是由太空探索技术公司(SpaceX)提出的一个巨型低轨卫星互联网星座项目,计划在2019年至2024年间在太空搭建由约1.2万颗卫星组成的“星链”网络,其中1584颗将部署在地球上空550千米处的近地轨道,并从2020年开始工作。该卫星仍在工作。
2D轨道图
3D轨道图
轨道高度分析图
轨道倾角分析图
轨道综合分析图
查看轨道综合分析图